Погода в Самашках

Россия / Чеченская Республика     43°17′27″N   45°18′04″E
темп.,
°C
ветер,
м/с
пор.,
м/с
влажн.,
%
обл.,
%
осадки,
мм/ч
давл.,
гПа
погр.,
м
7 мая, пт
пт700:00+8ссз1176100 0.0 101410
03:00+8зсз227861 0.0 101418
06:00+10сз0178100 0.0 101551
09:00+16ссз2363100 0.0 1016599
12:00+20с345356 0.0 10161229
15:00+21ссз44443 0.0 10161072
18:00+18ссз11625 0.0 101713
21:00+13зюз227017 0.0 101918
8 мая, сб
сб800:00+12зюз22725 0.0 101913
03:00+11юз11765 0.0 101811
06:00+13ю00750 0.0 101832
09:00+18в35575 0.0 1016613
12:00+22в56455 0.0 10141197
15:00+23всв554633 0.0 10121297
18:00+18всв3666100 0.0 1012146
21:00+14зсз117858 0.1 101211
9 мая, вс
вс900:00+12юз00840 0.0 101110
03:00+12юз11860 0.0 101110
06:00+13вюв0082100 0.0 100838
09:00+18ссв1168100 0.0 1007400
12:00+22ссз445861 0.0 10081198
15:00+22ссз3458100 0.0 10081289
18:00+16сз101378100 0.6 1012703
21:00+9з71387100 3.6 1020911
10 мая, пн
пн1000:00+7з41090100 2.9 10221182
03:00+6юз4891100 4.9 10231194
06:00+6юз5788100 2.1 1024819
09:00+7зюз4778100 3.8 1022965
12:00+10з126430 1.4 1022934
15:00+14св125111 1.4 10191466
18:00+13юв226497 0.0 102093
21:00+9зсз117494 0.1 102014
11 мая, вт
вт1100:00+8зсз117663 0.0 102122
03:00+5з22885 0.0 102128
06:00+7з238393 0.0 1021108
09:00+11ссв236898 0.0 10211080
12:00+13ссв3361100 0.1 10201163
15:00+13ссв2471100 0.2 1020478
18:00+11всв1378100 0.0 1020145
21:00+8в11858 0.0 102111